Find Starlink 6190

NORAD ID: 56774 Int'l Des: 2023-078 Owner: SPXS Country: US Constellation: starlink operational
LEOCIRCULAR

Live-Position

3D-Globus wird geladen...

Über Starlink 6190

Beschreibung wird geladen...

Nächste Überflüge

Passes for default location (London). Set your location on the main map for personalized predictions.

Höhenverlauf

Loading altitude history...

Zweizeiliger Elementsatz

1 56774U 23078H 26124.56157713 .00001919 00000-0 16859-3 0 9991
2 56774 70.0002 223.6790 0003504 271.4527 88.6231 14.98329037160550
Epoch: 4. Mai 2026 • Age: 18 hours

Aktueller Status

Höhe 574.9 km
Geschwindigkeit 7.57 km/s
Subsatellitenpunkt 20.12°N, 101.7°W
Startdatum 31. Mai 2023
Alter 2.9 years
Typ internet

Technische Details

Klassifizierung Payload
Masse 305.00 kg
Trockenmasse 290.00 kg
Gesamtmasse 305.00 kg
Länge 0.20 m
Durchmesser 2.80 m
Spannweite 9.00 m
Form Box + pan
Hersteller SPXS
Bus-Typ Starlink
Phasenstatus In Orbit
Besitzer/Staat SPXS/US

Most Searched